Regional Weather Roundup
Issued by NWS

Home | Current Version | Previous Version | Text Only | Print | Product List | Glossary Off
Versions: 1 2 3 4 5 6 7 8 9 10 11 12 13 14 15 16 17 18 19 20 21 22 23 24 25 26 27 28 29 30 31 32 33 34 35 36 37 38 39 40 41 42 43 44 45 46 47 48 49 50

000
ASUS43 KLSX 062107
RWRMO

WEATHER SUMMARY FOR MISSOURI
NATIONAL WEATHER SERVICE SPRINGFIELD MO
300 PM CST FRI MAR 06 2015

NOTE: "FAIR" INDICATES FEW OR NO CLOUDS BELOW 12,000 FEET WITH NO
       SIGNIFICANT WEATHER AND/OR OBSTRUCTIONS TO VISIBILITY.
       CURRENT SKY AND/OR WEATHER CONDITIONS ARE NOT AVAILABLE FOR
       CHILLICOTHE AND FARMINGTON.

MOZ001>031-035>038-043-044-053-054-062200-
...NORTHERN AND WESTERN MISSOURI...

CITY           SKY/WX    TMP DP  RH WIND       PRES   REMARKS
KANSAS CTY INT MOSUNNY   58  25  28 W10       30.23F
KANSAS C DTWN  SUNNY     58  25  28 W10G21    30.24F
LEE`S SUMMIT   SUNNY     55  27  34 SW13G22   30.25F
ST JOSEPH      SUNNY     59  21  23 W10       30.20F
CHILLICOTHE      N/A     58  25  28 W12G20    30.22F
KIRKSVILLE     SUNNY     54  23  30 W12       30.20F

$$
MOZ066>068-077>081-088>096-101>105-062200-
...SOUTHWEST MISSOURI...

CITY           SKY/WX    TMP DP  RH WIND       PRES   REMARKS
SPRINGFIELD    SUNNY     50  28  42 SW18      30.34F
JOPLIN         SUNNY     52  29  41 SW20G28   30.35F

$$
MOZ032>034-039>042-045>050-055>058-069>072-062200-
...CENTRAL MISSOURI...

CITY           SKY/WX    TMP DP  RH WIND       PRES   REMARKS
COLUMBIA       SUNNY     53  27  36 W18G26    30.25F
JEFFERSON CITY SUNNY     55  23  28 SW16G24   30.26F
ROLLA          SUNNY     49  26  41 SW17G25   30.27F
SEDALIA        SUNNY     52  30  43 SW16G25   30.27F
WHITEMAN AFB   SUNNY     53  29  40 SW13G24   30.26S
WARRENSBURG    SUNNY     54  28  37 SW15G24   30.27F
OSAGE BEACH    SUNNY     54  27  35 SW15G24   30.29F

$$
MOZ051-052-059>065-062200-
...EAST CENTRAL MISSOURI...

CITY           SKY/WX    TMP DP  RH WIND       PRES   REMARKS
ST LOUIS INTL  NOT AVBL
SPIRIT OF STL  SUNNY     49  23  36 SW16G25   30.28F
ST CHARLES     SUNNY     43  29  57 SW10      30.28F

$$
MOZ072>076-082>087-097>100-106>115-062200-
...SOUTH CENTRAL AND SOUTHEAST MISSOURI...

CITY           SKY/WX    TMP DP  RH WIND       PRES   REMARKS
CAPE GIRARDEAU SUNNY     26  14  60 S14       30.48F WCI  14
FARMINGTON     SUNNY     39  19  45 SW16G23   30.37F
POPLAR BLUFF   SUNNY     30  14  51 S14       30.47F WCI  19
WEST PLAINS    SUNNY     42  22  44 SW10      30.39F

$$


USA.gov is the U.S. government's official web portal to all federal, state and local government web resources and services.